Home > Weather > Toulouse > Past weeks

Flag for France Past Weather in Toulouse, Midi-Pyrénées, France — Yesterday and Last 2 Weeks

Now
63 °F

Scattered clouds.


Feels Like: 63 °F
Forecast: 55 / 83 °F
Wind: 8 mph from West

Location: Toulouse / Blagnac

Current Time: Jun 27, 2016 at 9:43:04 AM

Latest Report: Jun 27, 2016 at 9:00 AM


Visibility: N/A

Pressure: 30.27 "Hg

Humidity: 68%

Dew Point: 52 °F

Location of ToulouseLocation

Past Weather in Toulouse — Graph

°F

Toulouse Temperature Yesterday

Maximum temperature yesterday: 75 °F (at 4:30 PM)
Minimum temperature yesterday: 59 °F (at 6:00 AM)
Average temperature yesterday: 67 °F

High & Low Weather Summary for the Past Weeks

 TemperatureHumidityPressure
High90 °F (Jun 22, 4:00 PM)94% (Jun 13, 10:30 AM)30.39 "Hg (Jun 13, 10:30 AM)
Low54 °F (Jun 16, 4:00 AM)31% (Jun 22, 4:00 PM)29.53 "Hg (Jun 15, 7:00 PM)
Average67 °F66%30.04 "Hg
* Reported Jun 12 8:00 AM — Jun 27 8:30 AM, Toulouse, Weather by CustomWeather, © 2016

Note: Actual official high and low records may vary slightly from our data, if they occured in-between our weather recording intervals... More about our weather records

Advertising

Toulouse Weather History for the Previous 24 Hours

Scroll right to see more
 ConditionsComfort  
Time TempWeatherWind HumidityBarometerVisibility
8:30 AM
Mon, Jun 27
61 °FPartly sunny.7 mph72%30.27 "HgN/A
8:00 AM59 °FOvercast.6 mph77%30.27 "HgN/A
7:30 AM59 °FMore clouds than sun.8 mph77%30.27 "HgN/A
7:00 AM59 °FOvercast.7 mph77%30.27 "HgN/A
6:30 AM59 °FPassing clouds.8 mph77%30.27 "HgN/A
6:00 AM59 °FPassing clouds.7 mph77%30.27 "HgN/A
5:30 AM57 °FPassing clouds.6 mph82%30.27 "HgN/A
5:00 AM57 °FClear.7 mph82%30.24 "Hg10 mi
4:30 AM59 °FClear.7 mph77%30.24 "Hg10 mi
4:00 AM59 °FClear.8 mph77%30.24 "Hg10 mi
3:30 AM59 °FClear.9 mph77%30.24 "Hg10 mi
3:00 AM61 °FClear.10 mph77%30.24 "Hg10 mi
2:30 AM61 °FClear.10 mph77%30.24 "Hg10 mi
2:00 AM63 °FClear.13 mph73%30.24 "Hg10 mi
1:30 AM63 °FClear.14 mph68%30.24 "Hg10 mi
1:00 AM64 °FClear.13 mph64%30.24 "Hg10 mi
12:30 AM64 °FClear.13 mph64%30.24 "Hg10 mi
12:00 AM66 °FClear.13 mph60%30.24 "Hg10 mi
11:30 PM
Sun, Jun 26
68 °FClear.12 mph56%30.24 "Hg10 mi
11:00 PM68 °FClear.10 mph53%30.21 "Hg10 mi
10:30 PM68 °FSunny.9 mph53%30.21 "Hg10 mi
10:00 PM68 °FSunny.9 mph53%30.21 "Hg10 mi
9:30 PM70 °FSunny.9 mph50%30.18 "Hg10 mi
9:00 PM70 °FSunny.9 mph50%30.18 "Hg10 mi
8:30 PM72 °FSunny.12 mph47%30.18 "Hg10 mi
8:00 PM72 °FSunny.10 mph44%30.18 "Hg10 mi
7:30 PM73 °FSunny.15 mph41%30.18 "Hg10 mi
7:00 PM72 °FSunny.10 mph44%30.15 "Hg10 mi
6:30 PM75 °FSunny.13 mph39%30.15 "Hg10 mi
6:00 PM73 °FPassing clouds.9 mph41%30.18 "HgN/A
5:30 PM75 °FSunny.13 mph39%30.18 "Hg10 mi
5:00 PM73 °FPassing clouds.12 mph41%30.15 "HgN/A
4:30 PM75 °FPassing clouds.12 mph41%30.15 "HgN/A
4:00 PM72 °FSunny.13 mph44%30.15 "Hg10 mi
3:30 PM72 °FPassing clouds.10 mph44%30.15 "HgN/A
3:00 PM73 °FPassing clouds.10 mph44%30.18 "HgN/A
2:30 PM72 °FPassing clouds.12 mph47%30.18 "HgN/A
2:00 PM72 °FBroken clouds.12 mph47%30.18 "HgN/A
1:30 PM72 °FPartly sunny.10 mph47%30.18 "HgN/A
1:00 PM72 °FScattered clouds.10 mph47%30.18 "HgN/A
12:30 PM70 °FPassing clouds.10 mph50%30.18 "HgN/A
12:00 PM70 °FPassing clouds.10 mph50%30.18 "HgN/A
11:30 AM70 °FPassing clouds.9 mph50%30.18 "HgN/A
11:00 AM68 °FPassing clouds.8 mph53%30.18 "HgN/A
10:30 AM66 °FPassing clouds.9 mph60%30.18 "HgN/A
10:00 AM64 °FPassing clouds.8 mph64%30.18 "HgN/A
9:30 AM63 °FSunny.8 mph64%30.18 "Hg10 mi
9:00 AM63 °FPassing clouds.8 mph64%30.18 "HgN/A
Weather by CustomWeather, © 2016

See weather overviewHow to use our weather pages